Temp
-6 -6 -6 -6 -6 -6 -6 -6 -6 -6 -6 -6 -6 -6 -6 -6 -6 -6 -6 -6 -6 -6 -6 -6 -6 -6 -6 -6 -6 -6 -6 -6 -6 -6 -6 -6 -7 -7 -7 -7 -7 -7
-6 -6 -6 -6 -6 -6 -6 -6 -6 -6 -6 -6 -6 -6 -6 -6 -6 -6 -6 -6 -6 -6 -6 -6 -6 -6 -6 -6 -6 -6 -6 -6 -6 -6 -6 -6 -6 -6 -7 -7 -7 -7
-6 -6 -6 -6 -6 -6 -6 -6 -6 -6 -6 -6 -6 -6 -6 -6 -6 -6 -6 -6 -6 -6 -6 -6 -6 -6 -6 -6 -6 -6 -6 -6 -6 -6 -6 -6 -6 -6 -7 -7 -7 -7
-6 -6 -6 -6 -6 -6 -6 -6 -6 -6 -6 -7 -7 -7 -6 -6 -6 -6 -6 -6 -6 -6 -6 -6 -6 -6 -6 -6 -6 -6 -6 -6 -6 -6 -6 -6 -6 -6 -6 -6 -6 -6
-6 -6 -6 -6 -6 -6 -6 -6 -6 -6 -6 -6 -7 -7 -7 -6 -6 -6 -6 -6 -6 -6 -6 -6 -6 -6 -6 -6 -6 -6 -6 -6 -6 -6 -6 -6 -6 -6 -6 -6 -7 -6
-6 -6 -6 -6 -6 -6 -6 -6 -6 -6 -6 -6 -6 -6 -7 -6 -6 -6 -6 -6 -6 -6 -6 -6 -6 -6 -6 -6 -6 -6 -6 -6 -6 -6 -6 -6 -6 -6 -6 -6 -6 -6
-6 -6 -6 -6 -6 -6 -6 -6 -6 -6 -6 -6 -6 -6 -6 -6 -6 -6 -6 -6 -6 -6 -6 -6 -6 -6 -6 -6 -6 -6 -6 -6 -6 -6 -6 -6 -6 -6 -6 -6 -6 -6
-6 -6 -6 -6 -6 -6 -6 -6 -6 -5 -6 -6 -6 -6 -6 -6 -6 -6 -6 -6 -6 -6 -6 -6 -6 -6 -6 -6 -6 -6 -6 -6 -6 -6 -6 -6 -6 -6 -6 -6 -6 -6
-6 -6 -6 -6 -6 -6 -6 -6 -6 -6 -6 -6 -6 -6 -6 -6 -6 -6 -6 -6 -6 -6 -6 -6 -6 -6 -6 -6 -6 -6 -6 -6 -6 -6 -6 -6 -6 -6 -6 -6 -6 -6
-6 -6 -6 -6 -6 -7 -6 -6 -6 -6 -6 -6 -6 -6 -6 -6 -6 -6 -6 -6 -6 -6 -6 -6 -6 -6 -6 -6 -6 -6 -6 -6 -6 -6 -6 -6 -6 -6 -6 -6 -6 -6
-6 -6 -6 -6 -6 -6 -6 -6 -6 -6 -6 -6 -6 -6 -6 -6 -6 -7 -7 -7 -7 -7 -6 -6 -6 -6 -6 -6 -6 -6 -6 -6 -6 -6 -5 -6 -6 -6 -6 -6 -6 -6
-6 -6 -6 -6 -6 -6 -6 -6 -6 -6 -6 -6 -6 -6 -6 -6 -6 -7 -7 -7 -7 -7 -7 -7 -6 -6 -6 -6 -6 -6 -6 -6 -6 -6 -6 -6 -6 -5 -5 -6 -6 -6
-6 -6 -7 -7 -7 -6 -6 -6 -6 -6 -6 -6 -6 -6 -6 -6 -6 -6 -6 -7 -7 -7 -7 -7 -7 -7 -6 -6 -6 -6 -6 -6 -6 -6 -6 -6 -6 -6 -5 -5 -5 -5
-7 -7 -7 -7 -7 -7 -7 -6 -6 -6 -6 -6 -6 -6 -6 -6 -6 -6 -6 -6 -6 -7 -7 -7 -7 -7 -7 -7 -6 -6 -6 -6 -6 -6 -6 -6 -6 -6 -6 -5 -5 -5
-7 -7 -7 -7 -7 -7 -7 -7 -6 -6 -6 -6 -6 -6 -6 -6 -6 -6 -6 -6 -6 -6 -6 -7 -7 -7 -7 -7 -7 -6 -6 -6 -6 -6 -6 -6 -6 -6 -6 -6 -5 -5
-7 -7 -7 -7 -7 -7 -7 -7 -6 -6 -6 -6 -6 -6 -6 -6 -6 -6 -6 -6 -6 -6 -6 -6 -6 -7 -7 -7 -6 -6 -6 -6 -6 -6 -6 -6 -6 -6 -6 -6 -6 -6
-7 -6 -6 -7 -7 -7 -7 -7 -7 -7 -6 -6 -6 -6 -6 -6 -6 -6 -6 -6 -6 -6 -6 -6 -6 -7 -7 -6 -6 -6 -6 -6 -6 -6 -6 -6 -6 -6 -6 -6 -6 -6
-6 -6 -6 -7 -7 -7 -7 -7 -7 -6 -7 -7 -7 -7 -7 -6 -6 -6 -6 -6 -6 -6 -6 -6 -7 -7 -7 -6 -7 -7 -6 -6 -6 -6 -6 -6 -6 -6 -6 -6 -6 -6
-6 -6 -6 -6 -6 -6 -6 -6 -6 -6 -6 -7 -7 -7 -7 -7 -6 -6 -6 -6 -6 -6 -6 -6 -7 -7 -7 -6 -7 -7 -7 -7 -7 -6 -6 -6 -6 -6 -6 -6 -6 -6
-6 -6 -6 -6 -6 -6 -6 -6 -6 -6 -6 -6 -7 -7 -7 -7 -7 -6 -6 -6 -6 -6 -6 -6 -7 -7 -7 -7 -7 -7 -7 -7 -7 -7 -7 -6 -6 -6 -6 -6 -6 -7
-6 -6 -7 -6 -6 -6 -6 -6 -6 -6 -6 -6 -6 -6 -7 -7 -7 -6 -7 -7 -6 -6 -6 -6 -7 -7 -7 -7 -7 -7 -7 -7 -7 -7 -7 -7 -7 -7 -6 -7 -7 -7
-7 -7 -7 -6 -6 -6 -6 -6 -6 -6 -6 -6 -6 -6 -6 -7 -7 -7 -7 -7 -7 -6 -6 -6 -7 -7 -7 -7 -7 -7 -7 -7 -7 -7 -7 -7 -7 -7 -6 -6 -6 -7
-7 -7 -7 -7 -7 -7 -7 -7 -7 -6 -6 -6 -6 -6 -6 -7 -7 -7 -7 -7 -7 -7 -6 -7 -7 -7 -7 -7 -7 -7 -7 -7 -7 -7 -7 -7 -7 -7 -7 -6 -6 -7
-7 -7 -7 -7 -7 -7 -7 -7 -7 -6 -6 -6 -6 -6 -6 -7 -7 -7 -7 -7 -7 -7 -7 -7 -8 -8 -7 -7 -7 -7 -7 -7 -7 -7 -7 -7 -7 -7 -7 -7 -7 -7
-7 -7 -7 -7 -7 -7 -7 -7 -7 -7 -7 -7 -7 -7 -7 -7 -7 -7 -7 -7 -7 -7 -7 -7 -8 -8 -8 -8 -7 -7 -7 -7 -7 -7 -7 -7 -7 -7 -7 -7 -7 -7
-8 -8 -7 -7 -7 -7 -7 -7 -7 -7 -7 -7 -7 -7 -7 -7 -7 -7 -7 -8 -8 -8 -8 -8 -8 -8 -8 -8 -8 -7 -7 -7 -7 -7 -7 -7 -7 -7 -7 -7 -7 -7
Height
5959 5959 5960 5960 5962 5962 5962 5963 5964 5964 5965 5966 5966 5966 5967 5968 5968 5969 5970 5970 5971 5972 5972 5972 5972 5973 5974 5974 5975 5976 5976 5976 5977 5978 5978 5978 5979 5980 5980 5979 5979 5980
5958 5958 5959 5960 5960 5961 5962 5962 5962 5964 5964 5964 5966 5966 5966 5968 5968 5968 5970 5970 5970 5971 5972 5972 5972 5973 5974 5974 5974 5975 5976 5976 5976 5977 5978 5978 5978 5979 5979 5980 5980 5980
5958 5958 5958 5958 5960 5960 5960 5962 5962 5962 5962 5964 5964 5965 5966 5967 5968 5968 5969 5970 5970 5970 5972 5972 5972 5972 5973 5974 5974 5974 5974 5975 5976 5976 5977 5978 5978 5978 5978 5979 5979 5980
5956 5957 5958 5958 5958 5959 5960 5960 5961 5961 5962 5962 5963 5964 5964 5966 5966 5968 5968 5968 5969 5970 5970 5971 5972 5972 5972 5973 5973 5974 5974 5974 5975 5976 5976 5976 5977 5977 5978 5978 5978 5979
5954 5956 5956 5957 5958 5958 5958 5959 5960 5960 5960 5961 5962 5962 5963 5964 5966 5966 5967 5968 5968 5968 5969 5970 5970 5971 5972 5972 5972 5973 5973 5974 5974 5974 5975 5976 5976 5976 5976 5977 5978 5978
5952 5954 5954 5955 5956 5956 5957 5958 5958 5959 5960 5960 5960 5961 5962 5962 5964 5965 5966 5966 5967 5968 5968 5968 5970 5970 5971 5972 5972 5972 5972 5972 5972 5973 5974 5974 5974 5975 5976 5976 5976 5977
5950 5952 5952 5953 5954 5955 5956 5956 5957 5958 5958 5959 5960 5960 5961 5962 5962 5964 5964 5966 5966 5966 5968 5968 5968 5969 5970 5970 5971 5972 5972 5972 5972 5972 5972 5972 5973 5974 5974 5975 5976 5976
5948 5950 5951 5952 5953 5954 5954 5956 5956 5957 5958 5958 5959 5960 5960 5962 5962 5963 5964 5964 5965 5966 5966 5967 5968 5968 5968 5969 5970 5970 5971 5971 5972 5972 5972 5972 5972 5972 5973 5974 5974 5975
5946 5948 5949 5950 5952 5952 5954 5954 5955 5956 5957 5958 5958 5959 5960 5960 5961 5962 5962 5964 5964 5965 5966 5966 5966 5968 5968 5968 5968 5969 5970 5970 5970 5970 5971 5971 5971 5972 5972 5972 5972 5973
5944 5946 5947 5948 5950 5950 5952 5953 5954 5955 5956 5956 5957 5958 5958 5959 5960 5960 5962 5962 5963 5964 5964 5965 5966 5966 5966 5967 5968 5968 5968 5969 5970 5970 5970 5970 5970 5970 5971 5971 5972 5972
5944 5944 5946 5946 5948 5948 5950 5951 5952 5954 5954 5955 5956 5956 5957 5958 5958 5958 5960 5960 5962 5962 5963 5964 5964 5965 5966 5966 5966 5966 5967 5968 5968 5969 5970 5970 5970 5970 5970 5970 5970 5971
5942 5943 5945 5946 5947 5948 5948 5950 5951 5952 5953 5954 5954 5954 5956 5956 5956 5957 5957 5958 5959 5960 5961 5962 5962 5964 5964 5964 5965 5966 5966 5966 5968 5968 5968 5968 5969 5969 5969 5970 5970 5970
5940 5941 5942 5944 5946 5947 5948 5948 5949 5950 5951 5952 5952 5953 5953 5954 5954 5955 5956 5956 5956 5958 5959 5960 5960 5961 5962 5963 5964 5964 5964 5965 5966 5966 5966 5967 5968 5968 5968 5968 5968 5968
5938 5939 5940 5941 5942 5944 5945 5946 5946 5946 5948 5949 5950 5950 5950 5951 5952 5953 5954 5954 5954 5955 5956 5957 5958 5959 5960 5961 5962 5962 5962 5963 5964 5964 5964 5964 5965 5966 5966 5966 5966 5967
5936 5936 5938 5938 5938 5940 5941 5942 5943 5944 5944 5945 5946 5947 5948 5948 5949 5950 5952 5952 5952 5952 5954 5954 5956 5957 5958 5958 5960 5960 5960 5961 5962 5962 5962 5962 5963 5963 5964 5964 5964 5965
5932 5934 5935 5936 5936 5937 5938 5940 5940 5941 5942 5942 5943 5944 5944 5945 5946 5947 5948 5950 5950 5950 5951 5952 5954 5954 5956 5956 5957 5958 5959 5960 5960 5960 5961 5962 5962 5962 5962 5962 5962 5962
5929 5930 5932 5933 5934 5934 5936 5936 5937 5938 5938 5939 5940 5940 5942 5942 5942 5944 5946 5947 5948 5949 5949 5950 5951 5952 5953 5954 5954 5956 5956 5958 5958 5958 5959 5960 5960 5960 5960 5960 5960 5960
5926 5927 5928 5930 5930 5932 5932 5932 5934 5934 5934 5935 5936 5937 5938 5939 5940 5940 5942 5944 5945 5946 5947 5948 5948 5950 5950 5952 5952 5954 5954 5955 5956 5956 5956 5957 5958 5958 5958 5958 5958 5958
5922 5924 5924 5926 5926 5928 5928 5929 5930 5930 5930 5930 5932 5932 5934 5936 5936 5937 5938 5940 5942 5944 5944 5946 5946 5947 5948 5949 5950 5951 5952 5952 5953 5954 5954 5954 5954 5955 5956 5956 5956 5956
5920 5920 5922 5922 5923 5924 5925 5926 5926 5927 5927 5927 5927 5928 5930 5932 5932 5934 5934 5936 5938 5940 5942 5944 5944 5945 5946 5946 5948 5948 5950 5950 5950 5951 5951 5951 5952 5952 5952 5953 5953 5954
5916 5918 5918 5920 5920 5920 5922 5922 5923 5924 5924 5924 5924 5924 5926 5927 5929 5930 5932 5933 5935 5937 5940 5942 5942 5942 5944 5944 5944 5946 5946 5948 5948 5948 5948 5948 5948 5948 5949 5950 5950 5950
5914 5915 5916 5917 5918 5918 5918 5919 5920 5920 5920 5921 5921 5922 5922 5923 5925 5927 5928 5930 5932 5934 5936 5939 5940 5940 5941 5942 5942 5942 5944 5944 5946 5946 5945 5946 5946 5946 5946 5946 5946 5947
5912 5912 5914 5914 5915 5915 5916 5916 5917 5918 5918 5917 5917 5918 5918 5919 5922 5924 5925 5927 5929 5931 5934 5936 5936 5936 5938 5938 5938 5939 5940 5941 5942 5942 5942 5942 5942 5942 5943 5944 5944 5944
5909 5910 5911 5912 5912 5912 5914 5914 5914 5914 5914 5914 5914 5914 5914 5916 5918 5920 5922 5924 5926 5928 5930 5933 5933 5932 5934 5934 5935 5936 5936 5938 5939 5940 5940 5940 5940 5940 5940 5940 5942 5942
5906 5906 5908 5909 5909 5910 5912 5912 5912 5911 5911 5912 5912 5912 5912 5913 5915 5917 5919 5921 5923 5925 5927 5928 5930 5930 5930 5931 5932 5932 5934 5934 5935 5936 5936 5936 5936 5936 5936 5938 5939 5938
5902 5903 5904 5906 5906 5906 5908 5910 5910 5910 5910 5910 5911 5912 5911 5912 5913 5914 5916 5918 5920 5922 5923 5924 5926 5926 5927 5928 5928 5930 5930 5931 5931 5932 5932 5932 5932 5932 5933 5934 5935 5935
Wind_Speed
12 12 12 12 13 13 12 11 10 9 8 8 8 8 8 8 7 7 7 6 7 6 6 6 5 5 5 6 6 7 8 8 8 9 9 9 9 9 9 10 10 9
13 12 12 12 12 12 12 12 12 11 10 9 8 8 9 9 8 8 8 7 7 7 7 6 6 5 6 6 7 7 8 8 8 9 10 10 9 9 9 10 9 9
15 13 12 11 11 11 12 13 13 12 11 10 10 10 10 10 10 9 9 8 8 8 8 7 7 6 6 6 7 7 8 9 9 9 10 10 9 9 9 9 9 9
17 15 14 12 11 11 12 12 13 13 12 11 11 11 11 11 11 11 10 10 9 9 9 8 8 8 7 7 7 7 7 8 9 10 10 10 9 9 9 9 9 9
18 17 16 14 13 12 12 12 13 13 13 13 13 12 12 12 13 12 12 11 11 10 10 9 9 9 8 8 7 7 7 8 9 9 10 10 10 10 9 9 9 8
19 18 18 17 17 15 14 13 13 14 14 14 15 14 14 14 13 13 13 13 12 12 12 11 10 10 9 9 8 7 7 7 8 8 9 9 10 10 10 10 10 9
20 20 19 19 19 18 17 15 14 14 15 15 16 16 15 15 14 14 14 13 13 13 13 13 12 11 10 10 9 8 7 7 8 8 8 8 9 9 10 11 11 10
21 20 19 19 19 19 19 18 16 15 14 15 16 16 16 16 15 14 14 14 14 14 14 14 13 13 12 11 10 9 9 8 8 8 8 8 9 9 9 10 10 10
21 21 20 19 19 20 20 20 19 17 15 15 15 16 16 16 16 15 15 15 15 15 15 15 15 14 13 12 12 11 10 9 9 9 9 9 9 9 9 9 10 10
20 20 21 21 21 21 21 21 20 19 18 17 16 15 16 16 17 16 16 16 16 16 16 16 16 15 15 14 13 12 11 11 10 10 9 9 9 9 9 9 9 9
19 19 20 21 21 22 22 21 20 20 20 19 18 17 16 16 17 17 17 17 17 17 16 16 16 17 16 16 15 14 13 12 11 10 9 9 9 10 10 9 9 10
19 19 19 19 19 19 19 19 19 20 21 21 20 19 17 17 17 18 18 19 18 18 18 17 17 17 17 17 16 15 14 13 11 10 10 10 10 11 11 11 11 11
21 21 20 19 19 20 19 19 19 19 20 21 21 22 21 20 19 19 19 20 20 20 19 19 18 18 18 18 17 16 15 14 13 12 11 11 11 12 12 12 13 13
24 24 23 23 23 23 22 21 21 21 21 21 22 23 23 23 21 20 20 20 21 21 21 20 20 20 19 18 17 17 16 15 14 14 13 13 13 13 13 14 14 14
26 27 27 27 27 27 25 23 23 23 23 23 23 24 24 25 24 23 21 20 21 22 22 21 21 21 20 20 19 18 17 16 16 15 15 15 14 14 14 14 14 15
26 27 28 28 28 28 27 26 26 27 27 27 26 26 26 25 25 25 24 22 22 22 22 22 22 21 21 21 21 19 18 17 17 16 16 15 15 15 15 15 15 14
27 28 28 27 26 25 26 27 27 28 30 31 31 29 27 26 26 26 26 25 23 22 22 21 21 21 22 22 21 21 20 19 18 18 17 16 16 16 16 16 16 15
28 28 28 27 26 25 26 26 26 27 29 33 35 33 30 28 27 25 26 27 26 24 23 22 21 21 22 22 22 21 21 21 20 19 18 18 18 18 17 17 17 17
26 26 26 27 27 26 25 25 24 25 26 29 33 36 34 31 29 27 26 28 28 27 25 22 21 22 22 22 21 21 21 21 21 20 20 19 19 19 19 19 19 19
24 23 24 25 25 24 24 23 22 22 23 26 30 34 36 34 31 29 27 28 29 28 26 23 22 23 22 21 21 21 21 22 21 21 21 20 20 20 20 20 20 20
24 22 22 23 24 24 23 23 21 21 22 25 27 30 35 37 34 30 29 29 29 29 27 25 25 25 23 22 22 22 22 22 22 22 22 22 21 21 21 21 21 21
23 23 22 22 23 24 24 23 22 21 22 23 23 26 31 36 35 32 30 30 30 29 27 26 27 27 26 25 24 24 24 24 24 24 24 23 23 23 23 23 22 22
24 24 23 22 23 24 23 23 23 23 22 22 23 24 27 32 34 32 31 30 30 29 27 25 26 29 29 28 27 27 27 27 26 26 25 25 25 25 24 24 23 23
25 25 25 25 25 25 23 21 21 21 21 22 23 23 24 28 31 31 30 29 29 28 26 24 26 28 29 29 29 29 29 29 29 29 28 28 27 26 26 25 24 24
29 28 28 27 28 27 25 21 19 17 16 17 18 19 22 25 28 29 29 28 28 28 27 26 26 28 29 29 29 29 29 30 31 30 29 29 29 29 28 27 25 26
29 29 28 27 27 27 26 24 21 19 18 16 14 15 18 21 23 25 26 27 28 28 27 26 27 28 28 29 29 29 29 30 30 30 29 30 30 30 30 30 29 28
Wind_Direction
198 197 197 200 203 204 203 205 207 208 211 215 215 217 220 219 218 222 226 226 225 226 226 225 223 218 211 206 205 203 202 206 211 213 214 213 211 210 210 210 212 211
205 201 201 204 206 205 205 207 208 207 208 211 214 216 219 217 217 221 223 221 220 224 228 227 224 222 218 214 211 211 210 209 211 214 218 220 220 220 222 223 226 226
213 209 206 207 211 212 211 211 211 211 210 210 212 216 218 216 217 221 223 222 220 221 226 229 228 227 223 219 216 216 217 216 215 216 219 222 225 227 229 233 237 239
221 219 214 210 213 217 219 218 216 216 216 215 214 217 218 216 216 219 222 223 222 221 223 228 230 231 230 226 221 220 221 221 220 219 220 222 225 228 232 237 241 245
227 226 223 219 217 218 221 224 223 222 221 221 221 220 221 218 216 219 221 222 224 223 223 225 228 230 232 231 227 225 224 222 220 220 222 224 225 228 232 236 241 244
227 226 226 225 224 222 221 222 226 228 226 225 225 224 224 222 219 220 223 224 226 226 226 226 226 226 230 232 230 229 229 228 225 222 221 223 225 229 232 235 238 242
228 227 226 227 229 229 226 223 224 228 231 231 230 230 230 228 225 223 224 227 228 230 230 229 228 226 227 230 231 230 230 233 233 229 226 225 226 229 232 235 238 242
228 229 229 229 232 235 236 232 228 227 231 235 235 235 236 236 234 232 230 229 230 232 234 234 234 232 230 229 231 232 233 236 238 237 235 234 231 231 231 233 237 241
227 228 230 232 234 238 241 241 239 235 233 236 239 240 239 239 240 240 240 238 236 235 236 236 237 237 237 234 233 233 234 237 240 240 241 242 239 236 233 232 234 237
226 226 227 228 231 236 239 242 243 242 239 237 239 242 243 242 241 241 243 244 243 242 241 240 240 240 240 240 237 236 235 236 239 240 242 245 246 245 243 240 237 237
228 229 230 230 230 232 236 239 242 244 243 241 239 240 242 244 243 241 241 242 244 245 245 243 243 242 242 242 242 241 240 239 241 244 246 247 250 252 251 250 247 245
231 232 234 237 237 237 238 240 243 245 246 245 242 240 240 242 243 242 241 241 242 244 245 245 244 245 244 243 244 246 247 246 246 248 252 254 254 254 252 251 250 250
238 237 237 240 244 245 243 241 242 245 248 248 246 242 240 239 241 242 242 242 242 242 243 244 244 245 245 245 246 247 249 251 250 250 252 254 256 257 257 255 252 252
242 243 242 243 243 244 246 244 242 242 243 246 246 244 241 239 239 242 243 243 243 242 242 242 243 245 246 247 247 248 249 251 252 252 251 251 253 257 260 261 259 258
244 244 245 246 246 245 246 248 248 246 243 242 243 243 241 239 238 240 243 244 243 242 242 242 243 245 247 248 248 249 250 252 253 254 255 255 255 257 260 264 267 268
247 248 247 248 250 249 251 255 257 255 250 245 243 241 240 238 237 237 241 244 245 244 243 243 244 246 248 250 250 252 253 255 257 258 260 262 263 264 264 266 270 272
249 251 251 252 253 253 256 261 262 259 254 249 246 244 241 239 237 236 238 241 244 246 244 243 244 245 248 251 253 255 256 257 258 260 262 264 266 267 268 269 270 272
248 251 254 255 255 255 259 262 262 261 258 252 247 245 244 241 238 235 236 238 241 244 244 243 242 244 247 250 253 256 258 259 260 260 260 261 263 265 267 269 270 271
249 252 253 253 253 255 258 260 260 260 260 254 249 245 242 241 239 235 235 236 237 239 242 241 241 242 244 247 250 253 256 258 259 260 260 261 262 263 264 267 268 269
248 250 250 250 252 254 256 257 258 259 259 256 251 245 240 239 239 236 234 235 236 237 240 241 241 242 243 244 247 250 252 255 256 258 259 260 261 263 264 266 267 268
247 248 248 248 252 254 254 255 257 260 260 256 252 245 238 238 239 237 235 235 236 237 239 240 241 242 242 242 244 246 248 251 253 255 256 257 259 260 262 263 265 267
247 248 248 248 251 254 256 258 258 260 260 257 254 249 241 237 238 237 235 235 236 237 237 238 240 243 242 242 243 245 246 249 250 251 254 255 256 258 259 260 262 264
249 250 251 252 253 254 257 261 261 258 256 254 254 254 246 237 234 234 234 235 237 239 238 236 239 242 242 242 243 244 246 249 250 251 252 254 255 257 258 260 262 263
248 249 251 253 253 252 254 260 262 258 253 249 248 249 244 235 231 232 234 236 239 241 240 237 238 241 242 242 244 245 247 250 251 252 254 255 256 258 260 261 263 264
248 248 247 248 250 250 249 251 256 258 253 246 241 240 238 235 231 232 234 236 237 240 240 238 239 241 243 244 246 247 248 251 252 253 255 256 257 258 259 260 262 263
248 245 245 245 248 250 249 247 247 248 248 245 241 238 235 233 231 232 232 233 235 236 238 239 240 242 244 246 248 249 250 251 253 254 255 257 257 258 258 259 259 260